Tracking 35275 objects as of 9-Sep-2026
HD Live streaming from Space Station
objects crossing your sky now

SL-12 DEB


SL-12 DEB is no longer on orbit


NORAD ID: 29341
Int'l Code: 1989-039AY
Launch date: May 31, 1989
Source: Commonwealth of Independent States (former USSR) (CIS)
Launch site: TYURATAM MISSILE AND SPACE COMPLEX (TTMTR)
Decay date: 2007-01-17

Note: This is SATELLITE DEBRIS
Your satellite tracking list
Your tracking list is empty




NASA's NSSDC Master Catalog

Two Line Element Set (TLE):
1 29341U 89039AY  06359.23542002 +.00007981 +00000-0 +62056-2 0  9995
2 29341 065.4428 219.3499 5635777 062.3799 343.2407 04.48984513007256
Source of the keplerian elements: AFSPC